Flag for Switzerland Weather past 2 weeks in Schaffhausen, Schaffhausen, Switzerland

Now
53 °F

Cool.


Feels Like: 52 °F
Forecast: 38 / 65 °F
Wind: 3 mph from Southwest

Location: Zurich-Kloten

Current Time: May 26, 2015 at 4:04:49 PM

Latest Report: May 26, 2015 at 3:00 PM


Visibility: N/A

Pressure: 30.09 "Hg

Humidity: 83%

Dew point: 47 °F

Location of SchaffhausenLocation

Historic Weather in Schaffhausen — Graph

°F

Schaffhausen temperature yesterday

Maximum temperature yesterday: 68 °F (at 2:00 PM)
Minimum temperature yesterday: 53 °F (at 7:00 AM)
Average temperature yesterday: 58 °F

Past Weeks' High & Low Weather Summary

 TemperatureHumidityPressure
High81 °F (May 12, 3:00 PM)98% (May 18, 6:00 AM)30.34 "Hg (May 18, 6:00 AM)
Low43 °F (May 22, 6:00 AM)33% (May 11, 5:00 PM)29.72 "Hg (May 18, 6:00 PM)
Average57 °F72%30.06 "Hg
* Reported May 11 2:00 PM — May 26 2:00 PM, Schaffhausen, Weather by CustomWeather, © 2015

Note: Actual official high and low records may vary slightly from our data, if they occured in-between our weather recording intervals... More about our weather records

Advertising

Schaffhausen weather history for previous 24 hours

 ConditionsComfort  
Time TempWeatherWind HumidityBarometerVisibility
2:00 PM
Tue, May 26
53 °FLow clouds.5 mph84%30.08 "Hg11 mi
1:00 PM52 °FCool.7 mph87%30.07 "HgN/A
12:00 PM52 °FCool.5 mph85%30.06 "HgN/A
11:00 AM55 °FSprinkles. Overcast.6 mph80%30.03 "Hg12 mi
10:00 AM55 °FCool.5 mph77%30.03 "HgN/A
9:00 AM54 °FCool.3 mph86%30.02 "HgN/A
8:00 AM53 °FSprinkles. Low clouds.3 mph91%30.01 "Hg9 mi
7:00 AM53 °FCool.1 mph94%29.99 "HgN/A
6:00 AM52 °FCool.6 mph94%29.98 "HgN/A
5:00 AM53 °FSprinkles. Low clouds.5 mph94%29.97 "Hg7 mi
4:00 AM53 °FCool.2 mph93%29.97 "HgN/A
3:00 AM53 °FCool.1 mph94%29.97 "HgN/A
2:00 AM54 °FLow clouds.2 mph94%29.97 "Hg9 mi
1:00 AM54 °FCool.3 mph93%29.98 "HgN/A
12:00 AM54 °FCool.3 mph91%29.98 "HgN/A
10:00 PM
Mon, May 25
55 °FCool.2 mph91%29.97 "HgN/A
9:00 PM56 °FCool.1 mph82%29.96 "HgN/A
8:00 PM57 °FSprinkles. Overcast.6 mph81%29.94 "Hg6 mi
7:00 PM59 °FCool.6 mph83%29.92 "HgN/A
6:00 PM59 °FCool.5 mph80%29.93 "HgN/A
5:00 PM58 °FSprinkles. Overcast.3 mph81%29.94 "Hg11 mi
4:00 PM57 °FCool.6 mph86%29.96 "HgN/A
Weather by CustomWeather, © 2015

See weather overviewHow to use our weather pages